[[{"header":{"parameterUnit":"m.s-1","parameterCategory":1,"la1":30.2991,"la2":30.254,"lo1":-89.0895,"lo2":-89.0444,"dy":0.0017,"dx":0.0017,"nx":28,"ny":28,"refTime":"2024-09-03T09:00:00:Z","depth":0,"parameterNumber":2,"parameterNumberName":"U-component_of_WINDS"},"data":[0,0,0,0,0,0,0,0,0,0,0,0,0,0,0,0,0,0,0,0,0,0,0,0,0,0,0,0,0,0,0,0,0,0,0,0,0,0,0,0,0,0,0,0,0,0,0,0,0,0,0,0,0,0,0,0,0,0,-4.5073,-4.5073,0,-4.5165,-4.5166,-4.5167,-4.5129,-4.5126,-4.5124,-4.5122,-4.5216,-4.5221,-4.5225,0,0,0,0,0,0,0,0,0,0,0,0,0,-4.4864,-4.4868,-4.5072,-4.5074,-4.5075,-4.5165,-4.5166,-4.5167,-4.5129,-4.5126,-4.5124,-4.5121,-4.5215,-4.522,-4.5226,0,0,0,0,0,0,0,0,0,0,0,0,0,-4.4956,-4.487,-4.5072,-4.5066,-4.5067,-4.5165,-4.5166,-4.5168,-4.513,-4.5126,-4.5123,-4.512,-4.5213,-4.522,-4.5226,-4.5335,0,0,-4.5247,-4.525,0,0,0,0,0,0,0,0,-4.4951,-4.4963,-4.5066,-4.5067,-4.5068,-4.5132,-4.5127,-4.5224,-4.513,-4.5106,-4.5122,-4.5118,-4.5191,-4.5199,-4.5224,-4.5339,-4.5343,-4.5248,-4.5252,-4.5255,-4.5257,0,0,0,0,0,0,0,-4.4944,-4.4959,-4.5109,-4.5068,-4.5069,-4.506,-4.5069,-4.5145,-4.5166,-4.5108,-4.5105,-4.5117,-4.5191,-4.5217,-4.5226,-4.5345,-4.5248,-4.5254,-4.5258,-4.5261,-4.5556,-4.556,0,0,0,0,0,0,-4.4938,-4.4954,-4.5106,-4.5112,-4.5,-4.5066,-4.5077,-4.5115,-4.5165,-4.5169,-4.5119,-4.5114,-4.5207,-4.5218,-4.5229,-4.536,-4.5255,-4.5261,-4.5265,-4.5553,-4.5557,-4.5561,0,0,0,0,0,0,-4.4933,-4.4952,-4.5102,-4.5032,-4.5051,-4.5073,-4.5116,-4.5118,-4.5145,-4.5174,-4.5177,-4.5143,-4.5205,-4.5219,-4.5309,-4.5362,-4.5264,-4.5271,-4.5548,-4.5554,-4.5559,-4.5622,0,0,0,0,0,0,-4.4928,-4.495,-4.4991,-4.5034,-4.5055,-4.5181,-4.512,-4.5122,-4.5157,-4.5151,-4.5196,-4.5201,-4.5204,-4.5299,-4.5316,-4.537,-4.5276,-4.5544,-4.5551,-4.5558,-4.5615,-4.5629,-4.5641,0,0,0,0,0,-4.492,-4.5004,-4.4993,-4.5012,-4.5106,-4.5184,-4.5196,-4.5197,-4.5161,-4.5203,-4.5222,-4.5199,-4.5355,-4.5309,-4.5328,-4.5384,-4.554,-4.5549,-4.5557,-4.5609,-4.5626,-4.564,0,0,0,0,0,0,-4.4966,-4.5009,-4.4998,-4.5098,-4.5138,-4.5177,-4.5229,-4.5215,-4.5265,-4.5258,-4.5258,-4.5269,-4.5362,-4.5383,-4.5331,-4.5493,-4.5442,-4.5455,-4.5475,-4.5492,-4.5504,-4.5496,-4.5282,0,0,0,0,0,-4.4988,-4.5047,-4.5082,-4.5167,-4.5188,-4.5206,-4.5239,-4.5238,-4.5279,-4.5295,-4.532,-4.5361,-4.5419,-4.5457,-4.5512,-4.5619,-4.5629,-4.5668,-4.5681,-4.5691,-4.5701,-4.576,-4.5778,-4.5589,-4.5589,-4.5589,0,0,-4.5033,-4.5064,-4.5101,-4.5177,-4.5208,-4.5269,-4.5219,-4.5286,-4.5332,-4.5305,-4.5391,-4.5412,-4.5458,-4.5557,-4.5602,-4.5577,-4.5756,-4.5702,-4.571,-4.5714,-4.5771,-4.5788,-4.5804,-4.5595,-4.5594,-4.5593,0,0,-4.5146,-4.5176,-4.5251,-4.5283,-4.5331,-4.5343,-4.5361,-4.5404,-4.5417,-4.5504,-4.5485,-4.5541,-4.5641,-4.5674,-4.5704,-4.5836,-4.5817,-4.5855,-4.592,-4.5978,-4.5993,-4.6006,-4.6052,-4.6068,-4.5865,-4.5865,-4.5865,0,-4.5196,-4.5287,-4.5291,-4.536,-4.5394,-4.5375,-4.5451,-4.5482,-4.5545,-4.557,-4.5542,-4.5668,-4.5698,-4.5805,-4.5838,-4.5863,-4.5884,-4.5847,-4.599,-4.6004,-4.6016,-4.606,-4.6077,-4.5869,-4.5869,-4.5868,-4.5868,0,-4.5346,-4.5411,-4.5466,-4.5528,-4.5569,-4.5641,-4.5656,-4.5698,-4.5695,-4.571,-4.58,-4.5836,-4.5898,-4.5925,-4.5921,-4.6032,-4.6015,-4.599,-4.5937,-4.6038,-4.6079,-4.6096,-4.5875,-4.5874,-4.5872,-4.5871,0,0,-4.5485,-4.5552,-4.5572,-4.56,-4.5654,-4.5704,-4.5777,-4.5839,-4.5875,-4.5921,-4.5981,-4.6069,-4.6046,-4.6081,-4.6082,-4.6133,-4.6235,-4.6101,-4.6102,-4.6123,-4.6359,-4.6377,-4.6396,-4.6225,-4.6228,-4.6231,-4.6355,0,-4.5601,-4.5728,-4.5735,-4.585,-4.591,-4.5895,-4.5959,-4.5999,-4.6017,-4.6071,-4.6091,-4.6153,-4.6118,-4.6139,-4.619,-4.6211,-4.6282,-4.6203,-4.628,-4.6283,-4.6266,-4.6418,-4.6435,-4.6551,-4.6371,-4.6374,-4.6376,0,-4.5751,-4.5803,-4.5925,-4.5972,-4.5997,-4.6054,-4.6113,-4.6165,-4.6212,-4.6222,-4.6263,-4.6258,-4.6333,-4.6283,-4.6387,-4.6334,-4.6367,-4.6383,-4.6388,-4.6392,-4.6333,-4.6424,-4.6588,-4.6604,-4.6402,-4.64,-4.6398,0,-4.5839,-4.5939,-4.6025,-4.6051,-4.6108,-4.6149,-4.6175,-4.6218,-4.6256,-4.6309,-4.6333,-4.6394,-4.6426,-4.6474,-4.6486,-4.6448,-4.6591,-4.654,-4.66,-4.66,-4.6627,-4.6625,-4.6796,-4.6654,-4.6654,-4.6653,-4.6653,0,-4.5965,-4.604,-4.6065,-4.6118,-4.6202,-4.6211,-4.6294,-4.6318,-4.6358,-4.6415,-4.6407,-4.6461,-4.6476,-4.6533,-4.6544,-4.6629,-4.6644,-4.6654,-4.6655,-4.6653,-4.6651,-4.6671,-4.6662,-4.6658,-4.6657,-4.6656,-4.6655,0,-4.6075,-4.6095,-4.6187,-4.6236,-4.625,-4.631,-4.6352,-4.6403,-4.6422,-4.6495,-4.6513,-4.6542,-4.6609,-4.6628,-4.6708,-4.6715,-4.6815,-4.681,-4.6799,-4.6798,-4.6856,-4.6849,-4.7044,-4.7069,-4.6913,-4.6914,-4.6916,0,-4.6152,-4.6209,-4.6265,-4.6304,-4.6332,-4.6394,-4.6433,-4.6446,-4.6487,-4.6547,-4.6591,-4.6659,-4.6712,-4.6821,-4.685,-4.6912,-4.6907,-4.6971,-4.6916,-4.6912,-4.6906,-4.6901,-4.6907,-4.698,-4.6982,-4.6983,-4.6984,0,-4.6288,-4.6296,-4.6352,-4.6414,-4.6462,-4.6511,-4.6558,-4.659,-4.661,-4.6657,-4.6727,-4.6769,-4.6853,-4.6919,-4.6983,-4.7011,-4.7001,-4.7003,-4.7019,-4.7015,-4.7006,-4.701,-4.6825,-4.6997,-4.6995,-4.6994,-4.6994,-4.6993,-4.6382,-4.6433,-4.648,-4.6545,-4.6583,-4.6628,-4.6678,-4.6705,-4.6763,-4.6832,-4.6838,-4.6913,-4.6962,-4.7046,-4.7078,-4.7138,-4.7119,-4.7143,-4.7149,-4.7154,-4.7158,-4.7,-4.715,-4.715,-4.7149,-4.7149,-4.7149,0,-4.6515,-4.6546,-4.6606,-4.6673,-4.6724,-4.6714,-4.6766,-4.6809,-4.6876,-4.6922,-4.6977,-4.7058,-4.7124,-4.7159,-4.7225,-4.7266,-4.7263,-4.7283,-4.7278,-4.7285,-4.7172,-4.715,-4.7284,-4.7284,-4.7284,-4.7284,-4.7284,-4.7284,-4.659,-4.6675,-4.669,-4.6795,-4.6826,-4.69,-4.6931,-4.6973,-4.701,-4.7101,-4.7156,-4.718,-4.7223,-4.7292,-4.7352,-4.7362,-4.7385,-4.7406,-4.7413,-4.7306,-4.7292,-4.7279,-4.7258,-4.7412,-4.7412,-4.752,-4.7521,-4.7521]},{"header":{"parameterUnit":"m.s-1","parameterCategory":1,"la1":30.2991,"la2":30.254,"lo1":-89.0895,"lo2":-89.0444,"dy":0.0017,"dx":0.0017,"nx":28,"ny":28,"refTime":"2024-09-03T09:00:00:Z","depth":0,"parameterNumber":3,"parameterNumberName":"V-component_of_WINDS"},"data":[0,0,0,0,0,0,0,0,0,0,0,0,0,0,0,0,0,0,0,0,0,0,0,0,0,0,0,0,0,0,0,0,0,0,0,0,0,0,0,0,0,0,0,0,0,0,0,0,0,0,0,0,0,0,0,0,0,0,2.9539,2.9539,0,2.9519,2.9519,2.9519,2.9581,2.9583,2.9585,2.9587,2.9555,2.9552,2.955,0,0,0,0,0,0,0,0,0,0,0,0,0,2.9621,2.9619,2.9539,2.9539,2.9538,2.9519,2.9519,2.9519,2.9581,2.9583,2.9585,2.9588,2.9556,2.9553,2.9549,0,0,0,0,0,0,0,0,0,0,0,0,0,2.9592,2.9619,2.9539,2.9567,2.957,2.9519,2.9519,2.9519,2.958,2.9583,2.9586,2.9589,2.9557,2.9553,2.9549,2.9467,0,0,2.9537,2.9535,0,0,0,0,0,0,0,0,2.9593,2.9588,2.9563,2.9565,2.9568,2.9556,2.9537,2.9501,2.9579,2.9576,2.9587,2.959,2.9552,2.9549,2.9538,2.9465,2.9464,2.9537,2.9534,2.9532,2.9531,0,0,0,0,0,0,0,2.9595,2.959,2.9531,2.9563,2.9566,2.9578,2.9577,2.953,2.9547,2.9576,2.9581,2.9578,2.9554,2.9542,2.9538,2.9463,2.9537,2.9533,2.9531,2.9529,2.9323,2.932,0,0,0,0,0,0,2.9595,2.9591,2.9531,2.953,2.9588,2.9574,2.9573,2.9557,2.9548,2.955,2.9576,2.9581,2.9547,2.9543,2.9537,2.9441,2.9532,2.9529,2.9526,2.9326,2.9323,2.9319,0,0,0,0,0,0,2.9596,2.9589,2.9532,2.9562,2.9556,2.957,2.9551,2.9555,2.9543,2.9548,2.9551,2.9561,2.9549,2.9543,2.9485,2.944,2.9527,2.9523,2.933,2.9325,2.9321,2.9247,0,0,0,0,0,0,2.9599,2.9589,2.956,2.9561,2.9554,2.9483,2.9548,2.9552,2.9537,2.9544,2.9535,2.9536,2.9551,2.9491,2.9481,2.9436,2.952,2.9334,2.9328,2.9322,2.9253,2.924,2.9229,0,0,0,0,0,2.9601,2.9537,2.9558,2.955,2.9518,2.948,2.9476,2.9498,2.9534,2.9503,2.9507,2.9536,2.9448,2.9484,2.9474,2.9427,2.9337,2.933,2.9323,2.9258,2.9243,2.9229,0,0,0,0,0,0,2.9525,2.9537,2.9561,2.9496,2.9487,2.9491,2.9452,2.948,2.9457,2.9464,2.9489,2.9487,2.9424,2.942,2.9461,2.9348,2.9398,2.9389,2.9352,2.9337,2.9326,2.9326,2.9517,0,0,0,0,0,2.9502,2.9473,2.9484,2.9425,2.942,2.9437,2.9421,2.944,2.943,2.9425,2.9425,2.9411,2.9381,2.9359,2.9331,2.9254,2.9252,2.9217,2.9205,2.9195,2.9186,2.9145,2.913,2.9296,2.9296,2.9297,0,0,2.9451,2.9454,2.9433,2.941,2.9405,2.9373,2.9433,2.9395,2.937,2.9418,2.9365,2.9364,2.9351,2.9283,2.9253,2.9278,2.914,2.9187,2.9179,2.9174,2.9136,2.9121,2.9107,2.9292,2.9293,2.9293,0,0,2.9341,2.9342,2.9294,2.9289,2.9283,2.9296,2.9284,2.9285,2.9288,2.9236,2.9272,2.9241,2.9187,2.9177,2.9164,2.9056,2.9081,2.9046,2.8981,2.8941,2.8928,2.8916,2.8876,2.8862,2.9037,2.9037,2.9037,0,2.9277,2.9233,2.9264,2.9225,2.9213,2.9261,2.9211,2.9204,2.9187,2.9176,2.9206,2.9142,2.9136,2.9067,2.9041,2.903,2.9016,2.9045,2.8928,2.8917,2.8906,2.8868,2.8853,2.9032,2.9033,2.9033,2.9034,0,2.9154,2.9123,2.9084,2.9072,2.9056,2.9011,2.9034,2.9013,2.9034,2.9043,2.8989,2.8985,2.8958,2.8943,2.8961,2.8877,2.8893,2.8925,2.8974,2.8886,2.885,2.8836,2.9026,2.9028,2.9029,2.903,0,0,2.8992,2.9002,2.8987,2.8983,2.8982,2.8956,2.8914,2.8892,2.8873,2.8861,2.8824,2.8781,2.8812,2.8797,2.8815,2.878,2.8694,2.8817,2.8817,2.8793,2.86,2.8575,2.8557,2.8713,2.8711,2.8708,2.8601,0,2.8884,2.8815,2.8843,2.877,2.8741,2.8788,2.8751,2.8745,2.8753,2.8727,2.8734,2.8703,2.8747,2.8739,2.8707,2.8711,2.8655,2.872,2.8676,2.8674,2.8676,2.8539,2.8511,2.841,2.8588,2.8585,2.8584,0,2.8747,2.8735,2.866,2.8667,2.8656,2.8622,2.8605,2.8581,2.8575,2.8583,2.857,2.8596,2.8552,2.8606,2.8545,2.8588,2.8573,2.8572,2.8569,2.8563,2.8621,2.8528,2.8378,2.8362,2.8562,2.8564,2.8566,0,2.8635,2.8599,2.8551,2.8546,2.8552,2.8528,2.8528,2.8526,2.8512,2.8496,2.8486,2.8464,2.8451,2.8433,2.8451,2.8489,2.8388,2.8442,2.8391,2.839,2.8364,2.8365,2.8208,2.8358,2.8358,2.8358,2.8359,0,2.8509,2.8461,2.8501,2.847,2.8418,2.8451,2.8397,2.8403,2.8401,2.8371,2.8409,2.8379,2.8408,2.838,2.8394,2.8341,2.8335,2.8339,2.8342,2.8334,2.8333,2.8321,2.8328,2.8354,2.8355,2.8356,2.8357,0,2.8373,2.8398,2.8348,2.836,2.8362,2.8323,2.8332,2.8303,2.8317,2.8278,2.827,2.8289,2.8258,2.8277,2.8244,2.8254,2.8185,2.82,2.8188,2.8191,2.8138,2.8142,2.7966,2.7944,2.811,2.8109,2.8107,0,2.829,2.8255,2.8266,2.8251,2.8251,2.8225,2.8212,2.8244,2.8228,2.8221,2.8192,2.8166,2.8147,2.8096,2.8104,2.808,2.8093,2.8033,2.8089,2.8082,2.809,2.8091,2.8087,2.802,2.8018,2.8017,2.8015,0,2.814,2.8155,2.8137,2.8123,2.8108,2.8098,2.809,2.8074,2.8107,2.8087,2.8059,2.8044,2.8015,2.7987,2.7968,2.7966,2.7994,2.7999,2.7985,2.7974,2.7969,2.797,2.8155,2.8001,2.8003,2.8004,2.8005,2.8005,2.8027,2.7999,2.8003,2.7981,2.798,2.7973,2.7948,2.796,2.7938,2.7919,2.7938,2.7904,2.7901,2.7878,2.7873,2.7845,2.7869,2.7849,2.7844,2.7838,2.7831,2.7976,2.7842,2.7842,2.7842,2.7843,2.7843,0,2.7878,2.7884,2.7865,2.7855,2.7838,2.7874,2.7868,2.785,2.7821,2.7817,2.7799,2.7767,2.7742,2.7751,2.7728,2.7704,2.7717,2.7697,2.7697,2.7696,2.7811,2.7824,2.7687,2.7687,2.7687,2.7687,2.7687,2.7687,2.7798,2.7752,2.7768,2.7722,2.7728,2.7698,2.7692,2.7685,2.7683,2.7647,2.7628,2.7636,2.7636,2.7615,2.7593,2.7596,2.7585,2.756,2.7567,2.7673,2.7688,2.7703,2.7715,2.7557,2.7557,2.7455,2.7454,2.7453]}]]